Tracking 19246 objects as of 21-Sep-2018
HD Live streaming from Space Station
objects crossing your sky now

FENGYUN 1C DEB

Track FENGYUN 1C DEB now!
10-day predictions


NORAD ID: 31312
Int'l Code: 1999-025BPQ
Perigee: 859.9 km
Apogee: 954.7 km
Inclination: 99.0 °
Period: 103.0 minutes
Semi major axis: 7278 km
RCS: 0.0157 m2 (small)
Launch date: May 10, 1999
Source: People's Republic of China (PRC)
Launch site: Taiyaun Space Center, China (TSC)

Note: This is SATELLITE DEBRIS
aabbcc
Your satellite tracking list
Your tracking list is empty




NASA's NSSDC Master Catalog

Two Line Element Set (TLE):
1 31312U 99025BPQ 18263.65315838 +.00000068 +00000-0 +77058-4 0  9999
2 31312 098.9520 303.0762 0065162 355.0938 129.9074 13.98169780582323
Source of the keplerian elements: AFSPC